Weather History for Houston / Southwest Airport, TX

Change the Weather History Date:

Tuesday, October 9, 2012

  Actual Average (KHOU) Record (KHOU)
Temperature  
Mean Temperature 72 °F 73 °F  
Max Temperature 86 °F 84 °F 93 °F (1962)
Min Temperature 57 °F 63 °F 40 °F (1976)
Degree Days  
Heating Degree Days 0 0  
Month to date heating degree days 0  
Since 1 July heating degree days 1  
Cooling Degree Days 6 9  
Month to date cooling degree days 87  
Year to date cooling degree days 2912  
Growing Degree Days 22 (Base 50)    
Moisture  
Dew Point 62 °F    
Average Humidity 72    
Maximum Humidity 88    
Minimum Humidity 48    
Precipitation  
Precipitation 0.00 in 0.17 in 3.60 in (2003)
Month to date precipitation 1.50  
Year to date precipitation 37.49  
Sea Level Pressure  
Sea Level Pressure 30.04 in    
Wind  
Wind Speed 4 mph (SSE)    
Max Wind Speed 12 mph    
Max Gust Speed 18 mph    
Visibility 10 miles    
Events      
T = Trace of Precipitation, MM = Missing Value Source: NWS Daily Summary

Daily Weather History Graph

Daily Weather History Graph

Search for Another Location

Airport:

Trip Planner

Search our weather history database for the weather conditions in past years. The results will help you decide how hot, cold, wet, or windy it might be!

Date:

Astronomy

Oct. 09, 2012 Rise Set
Actual Time 7:20 AM CDT 6:57 PM CDT
Civil Twilight 6:56 AM CDT 7:21 PM CDT
Nautical Twilight 6:28 AM CDT 7:48 PM CDT
Astronomical Twilight 6:00 AM CDT 8:16 PM CDT
Moon 1:23 AM CDT (10/9) 3:01 PM CDT (10/9)
Length of Visible Light 12h 25m
Length of Day
11h 37m
Last Quarter, 36% of the Moon is Illuminated
Oct 9
Last Quarter
Oct 15
New
Oct 21
First Quarter
Oct 29
Full
Nov 6
Last Quarter

Hourly Weather History & Observations

Time (CDT) Temp. Heat Index Dew Point Humidity Pressure Visibility Wind Dir Wind Speed Gust Speed Precip Events Conditions
12:15 AM 57.7 °F - 53.2 °F 85% 30.10 in 10.0 mi ENE 3.5 mph - N/A   Overcast
12:35 AM 59.0 °F - 54.3 °F 84% 30.09 in 10.0 mi Calm Calm - N/A   Overcast
12:55 AM 59.5 °F - 53.4 °F 80% 30.09 in 10.0 mi SE 4.6 mph - N/A   Overcast
1:15 AM 59.9 °F - 53.6 °F 80% 30.09 in 10.0 mi Calm Calm - N/A   Overcast
1:55 AM 60.4 °F - 55.4 °F 83% 30.09 in 10.0 mi Calm Calm - N/A   Overcast
2:55 AM 61.7 °F - 55.8 °F 81% 30.09 in 10.0 mi East 3.5 mph - N/A   Overcast
3:15 AM 62.1 °F - 55.9 °F 80% 30.08 in 10.0 mi Calm Calm - N/A   Overcast
3:35 AM 62.1 °F - 56.3 °F 81% 30.08 in 10.0 mi Calm Calm - N/A   Overcast
3:55 AM 62.2 °F - 56.5 °F 81% 30.08 in 10.0 mi Calm Calm - N/A   Overcast
4:15 AM 62.2 °F - 56.5 °F 81% 30.08 in 10.0 mi Calm Calm - N/A   Overcast
4:35 AM 62.6 °F - 56.5 °F 80% 30.08 in 10.0 mi Calm Calm - N/A   Overcast
4:55 AM 62.6 °F - 56.5 °F 80% 30.08 in 10.0 mi Calm Calm - N/A   Overcast
5:15 AM 62.4 °F - 56.7 °F 81% 30.07 in 10.0 mi East 3.5 mph - N/A   Overcast
5:35 AM 62.2 °F - 56.5 °F 81% 30.06 in 10.0 mi East 4.6 mph - N/A   Overcast
5:55 AM 62.1 °F - 56.5 °F 82% 30.06 in 10.0 mi East 3.5 mph - N/A   Overcast
6:15 AM 62.2 °F - 56.7 °F 82% 30.07 in 10.0 mi Calm Calm - N/A   Overcast
6:55 AM 62.6 °F - 57.4 °F 83% 30.08 in 10.0 mi ENE 3.5 mph - N/A   Overcast
7:15 AM 62.6 °F - 57.6 °F 84% 30.07 in 10.0 mi East 3.5 mph - N/A   Overcast
7:35 AM 62.8 °F - 58.1 °F 85% 30.07 in 10.0 mi East 4.6 mph - N/A   Overcast
7:55 AM 63.1 °F - 58.5 °F 85% 30.07 in 10.0 mi East 4.6 mph - N/A   Overcast
8:15 AM 64.2 °F - 59.2 °F 84% 30.07 in 10.0 mi East 4.6 mph - N/A   Overcast
8:35 AM 65.5 °F - 60.1 °F 83% 30.08 in 10.0 mi Calm Calm - N/A   Overcast
8:55 AM 67.3 °F - 61.0 °F 80% 30.07 in 10.0 mi Calm Calm - N/A   Overcast
9:15 AM 68.7 °F - 61.7 °F 78% 30.09 in 10.0 mi Calm Calm - N/A   Overcast
9:35 AM 70.7 °F - 63.3 °F 77% 30.09 in 10.0 mi Calm Calm - N/A   Overcast
9:55 AM 73.6 °F - 65.1 °F 75% 30.10 in 10.0 mi Calm Calm - N/A   Overcast
10:15 AM 75.6 °F - 66.0 °F 72% 30.10 in 10.0 mi SE 3.5 mph - N/A   Overcast
10:35 AM 77.2 °F - 65.7 °F 67% 30.10 in 10.0 mi SSE 4.6 mph - N/A   Overcast
10:55 AM 79.2 °F - 64.0 °F 60% 30.09 in 10.0 mi South 8.1 mph - N/A   Overcast
11:15 AM 80.6 °F 82.0 °F 63.5 °F 56% 30.09 in 10.0 mi SSE 9.2 mph - N/A   Overcast
11:55 AM 84.6 °F 85.4 °F 63.1 °F 48% 30.07 in 10.0 mi SSE 8.1 mph - N/A   Mostly Cloudy
12:15 PM 84.2 °F 85.4 °F 63.7 °F 50% 30.06 in 10.0 mi SSE 11.5 mph 18.4 mph N/A   Mostly Cloudy
12:35 PM 82.4 °F 83.7 °F 63.5 °F 53% 30.05 in 10.0 mi SSE 8.1 mph - N/A   Overcast
12:55 PM 84.2 °F 85.4 °F 63.7 °F 50% 30.05 in 10.0 mi South 8.1 mph 17.3 mph N/A   Overcast
1:15 PM 82.2 °F 83.7 °F 63.9 °F 54% 30.04 in 10.0 mi South 6.9 mph - N/A   Overcast
1:35 PM 84.2 °F 85.6 °F 64.2 °F 51% 30.03 in 10.0 mi South 9.2 mph - N/A   Overcast
1:55 PM 82.8 °F 84.3 °F 64.4 °F 54% 30.02 in 10.0 mi SSE 6.9 mph - N/A   Overcast
2:15 PM 84.4 °F 85.6 °F 64.0 °F 50% 30.01 in 10.0 mi South 4.6 mph - N/A   Mostly Cloudy
2:35 PM 86.9 °F 88.6 °F 64.8 °F 48% 30.00 in 10.0 mi SSE 8.1 mph - N/A   Scattered Clouds
2:55 PM 85.8 °F 87.1 °F 63.9 °F 48% 29.99 in 10.0 mi SSE 8.1 mph - N/A   Mostly Cloudy
3:15 PM 84.2 °F 85.6 °F 64.0 °F 51% 29.98 in 10.0 mi SSE 8.1 mph - N/A   Overcast
3:35 PM 83.5 °F 85.1 °F 64.6 °F 53% 29.98 in 10.0 mi South 4.6 mph - N/A   Mostly Cloudy
3:55 PM 84.4 °F 85.9 °F 64.2 °F 51% 29.98 in 10.0 mi SSE 6.9 mph - N/A   Overcast
4:15 PM 83.5 °F 84.9 °F 64.4 °F 52% 29.98 in 10.0 mi South 6.9 mph - N/A   Overcast
4:35 PM 82.4 °F 84.1 °F 64.6 °F 55% 29.98 in 10.0 mi SSE 9.2 mph - N/A   Overcast
4:55 PM 82.4 °F 84.2 °F 65.3 °F 56% 29.97 in 10.0 mi SSE 10.4 mph - N/A   Overcast
5:15 PM 81.9 °F 83.7 °F 65.3 °F 57% 29.97 in 10.0 mi SSE 11.5 mph 17.3 mph N/A   Mostly Cloudy
5:35 PM 82.2 °F 84.0 °F 65.3 °F 56% 29.97 in 10.0 mi South 8.1 mph - N/A   Scattered Clouds
5:55 PM 79.7 °F - 64.9 °F 61% 29.98 in 10.0 mi South 8.1 mph - N/A   Mostly Cloudy
6:15 PM 78.4 °F - 64.9 °F 63% 29.98 in 10.0 mi SSE 9.2 mph - N/A   Overcast
6:35 PM 77.4 °F - 64.9 °F 65% 29.98 in 10.0 mi SSE 6.9 mph - N/A   Mostly Cloudy
6:55 PM 75.9 °F - 64.6 °F 68% 29.98 in 10.0 mi SSE 5.8 mph - N/A   Scattered Clouds
7:15 PM 74.1 °F - 64.4 °F 72% 29.98 in 10.0 mi SSE 5.8 mph - N/A   Clear
7:35 PM 72.9 °F - 64.4 °F 75% 29.98 in 10.0 mi SSE 4.6 mph - N/A   Clear
7:55 PM 72.0 °F - 63.7 °F 75% 29.98 in 10.0 mi Calm Calm - N/A   Clear
8:15 PM 70.7 °F - 62.6 °F 75% 29.99 in 10.0 mi SE 3.5 mph - N/A   Clear
8:35 PM 70.0 °F - 63.0 °F 78% 30.00 in 10.0 mi South 4.6 mph - N/A   Clear
8:55 PM 69.1 °F - 63.0 °F 81% 29.99 in 10.0 mi South 3.5 mph - N/A   Clear
9:15 PM 69.1 °F - 63.7 °F 83% 30.00 in 10.0 mi South 4.6 mph - N/A   Clear
9:35 PM 68.9 °F - 64.0 °F 84% 29.99 in 10.0 mi South 4.6 mph - N/A   Clear
9:55 PM 68.9 °F - 64.4 °F 86% 30.00 in 10.0 mi South 3.5 mph - N/A   Clear
10:15 PM 68.9 °F - 64.0 °F 84% 30.00 in 10.0 mi South 5.8 mph - N/A   Clear
10:35 PM 68.9 °F - 64.4 °F 86% 30.00 in 10.0 mi South 5.8 mph - N/A   Clear
10:55 PM 68.9 °F - 64.9 °F 87% 30.00 in 10.0 mi South 5.8 mph - N/A   Clear
11:15 PM 68.9 °F - 65.3 °F 88% 30.01 in 10.0 mi Calm Calm - N/A   Clear
11:35 PM 68.5 °F - 64.6 °F 87% 30.01 in 10.0 mi South 3.5 mph - N/A   Clear
11:55 PM 68.2 °F - 64.0 °F 87% 30.01 in 7.0 mi Calm Calm - N/A   Clear